| time (UTC) | temp C | wind direction | speed KPH | gust KPH | rain 1hr cm | rain 24hr cm | rain mn cm | humidity % | barometer mb |
| 20260507222001 | 12 | 0 | 0.0 | 0.0 | 0.00 | 0.03 | 0.00 | 91 | 1014.3 |
| 20260507220957 | 12 | 0 | 0.0 | 0.0 | 0.00 | 0.03 | 0.00 | 90 | 1014.3 |
| 20260507220002 | 12 | 0 | 0.0 | 0.0 | 0.00 | 0.03 | 0.00 | 90 | 1014.2 |
| 20260507214957 | 12 | 0 | 0.0 | 0.0 | 0.00 | 0.03 | 0.03 | 91 | 1014.0 |
| 20260507212958 | 12 | 0 | 0.0 | 0.0 | 0.00 | 0.03 | 0.03 | 91 | 1013.9 |
| 20260507211956 | 12 | 0 | 0.0 | 0.0 | 0.00 | 0.03 | 0.03 | 91 | 1013.9 |
| 20260507210957 | 12 | 0 | 0.0 | 0.0 | 0.00 | 0.03 | 0.03 | 91 | 1013.8 |
| 20260507204957 | 13 | 0 | 0.0 | 0.0 | 0.00 | 0.03 | 0.03 | 90 | 1013.9 |
| 20260507203958 | 13 | 0 | 0.0 | 0.0 | 0.00 | 0.03 | 0.03 | 90 | 1014.0 |
| 20260507202006 | 13 | 0 | 0.0 | 0.0 | 0.00 | 0.03 | 0.03 | 91 | 1013.8 |
| 20260507195957 | 13 | 0 | 0.0 | 0.0 | 0.00 | 0.03 | 0.03 | 91 | 1013.7 |
| 20260507194957 | 13 | 0 | 0.0 | 0.0 | 0.00 | 0.03 | 0.03 | 90 | 1013.7 |
| 20260507193958 | 14 | 0 | 0.0 | 0.0 | 0.00 | 0.03 | 0.03 | 89 | 1013.6 |
| 20260507193001 | 14 | 0 | 0.0 | 0.0 | 0.00 | 0.03 | 0.03 | 89 | 1013.5 |
| 20260507190957 | 14 | 0 | 0.0 | 0.0 | 0.00 | 0.03 | 0.03 | 89 | 1013.4 |
| 20260507185958 | 15 | 0 | 0.0 | 0.0 | 0.00 | 0.03 | 0.03 | 88 | 1013.3 |
| 20260507183958 | 15 | 0 | 0.0 | 0.0 | 0.00 | 0.03 | 0.03 | 86 | 1013.3 |
| 20260507182957 | 15 | 0 | 0.0 | 0.0 | 0.00 | 0.03 | 0.03 | 85 | 1013.3 |
| 20260507182003 | 16 | 0 | 0.0 | 0.0 | 0.00 | 0.03 | 0.03 | 84 | 1013.2 |
| 20260507175958 | 16 | 0 | 1.6 | 0.0 | 0.00 | 0.03 | 0.03 | 81 | 1013.2 |
| 20260507174957 | 16 | 235 | 0.0 | 8.0 | 0.00 | 0.03 | 0.03 | 80 | 1013.2 |
| 20260507172959 | 17 | 0 | 0.0 | 0.0 | 0.00 | 0.03 | 0.03 | 78 | 1013.2 |
| 20260507171957 | 17 | 247 | 3.2 | 12.9 | 0.00 | 0.03 | 0.03 | 78 | 1013.4 |
| 20260507170957 | 17 | 168 | 3.2 | 8.0 | 0.00 | 0.03 | 0.03 | 78 | 1013.1 |
| 20260507170003 | 17 | 237 | 4.8 | 14.5 | 0.00 | 0.03 | 0.03 | 78 | 1013.0 |
| 20260507163958 | 17 | 238 | 9.7 | 19.3 | 0.00 | 0.03 | 0.03 | 76 | 1012.9 |
| 20260507162957 | 18 | 235 | 3.2 | 22.5 | 0.00 | 0.03 | 0.03 | 74 | 1012.9 |
| 20260507161958 | 19 | 198 | 1.6 | 14.5 | 0.00 | 0.03 | 0.03 | 72 | 1012.8 |
| 20260507160958 | 19 | 237 | 1.6 | 9.7 | 0.00 | 0.03 | 0.03 | 71 | 1012.8 |
| 20260507154957 | 18 | 195 | 3.2 | 6.4 | 0.00 | 0.03 | 0.03 | 72 | 1012.9 |
| 20260507150958 | 18 | 235 | 4.8 | 20.9 | 0.03 | 0.03 | 0.03 | 74 | 1013.0 |
| 20260507150011 | 18 | 178 | 4.8 | 14.5 | 0.03 | 0.03 | 0.03 | 74 | 1013.0 |
| 20260507144958 | 18 | 190 | 3.2 | 6.4 | 0.03 | 0.03 | 0.03 | 75 | 1013.0 |
| 20260507142958 | 17 | 169 | 3.2 | 8.0 | 0.03 | 0.03 | 0.03 | 78 | 1013.2 |
| 20260507141958 | 17 | 163 | 1.6 | 9.7 | 0.03 | 0.03 | 0.03 | 80 | 1013.3 |
| 20260507133957 | 16 | 0 | 0.0 | 0.0 | 0.00 | 0.00 | 0.00 | 83 | 1013.3 |
| 20260507132958 | 16 | 76 | 3.2 | 3.2 | 0.00 | 0.00 | 0.00 | 84 | 1013.4 |
| 20260507130957 | 16 | 0 | 1.6 | 0.0 | 0.00 | 0.00 | 0.00 | 83 | 1013.4 |
| 20260507125958 | 16 | 82 | 1.6 | 9.7 | 0.00 | 0.00 | 0.00 | 82 | 1013.4 |
| 20260507124957 | 16 | 0 | 0.0 | 0.0 | 0.00 | 0.00 | 0.00 | 81 | 1013.4 |
| 20260507123958 | 16 | 0 | 0.0 | 0.0 | 0.00 | 0.00 | 0.00 | 82 | 1013.3 |
| 20260507122958 | 16 | 0 | 6.4 | 0.0 | 0.00 | 0.00 | 0.00 | 82 | 1013.2 |
| 20260507121958 | 16 | 25 | 8.0 | 14.5 | 0.00 | 0.00 | 0.00 | 81 | 1013.2 |
| 20260507120959 | 16 | 37 | 1.6 | 14.5 | 0.00 | 0.00 | 0.00 | 81 | 1013.2 |
| 20260507115958 | 16 | 69 | 4.8 | 1.6 | 0.00 | 0.00 | 0.00 | 79 | 1013.2 |
| 20260507114957 | 16 | 46 | 3.2 | 19.3 | 0.00 | 0.00 | 0.00 | 79 | 1013.2 |
| 20260507113958 | 16 | 42 | 0.0 | 4.8 | 0.00 | 0.00 | 0.00 | 79 | 1013.4 |
| 20260507112959 | 16 | 63 | 4.8 | 4.8 | 0.00 | 0.00 | 0.00 | 80 | 1013.5 |
| 20260507103958 | 17 | 196 | 6.4 | 11.3 | 0.00 | 0.00 | 0.00 | 79 | 1013.5 |
| 20260507102958 | 17 | 233 | 1.6 | 25.7 | 0.00 | 0.00 | 0.00 | 78 | 1013.5 |
| 20260507101958 | 17 | 179 | 1.6 | 9.7 | 0.00 | 0.00 | 0.00 | 76 | 1013.4 |
| 20260507100958 | 17 | 348 | 4.8 | 14.5 | 0.00 | 0.00 | 0.00 | 76 | 1013.4 |
| 20260507095959 | 17 | 0 | 3.2 | 0.0 | 0.00 | 0.00 | 0.00 | 75 | 1013.3 |
| 20260507094958 | 18 | 185 | 3.2 | 11.3 | 0.00 | 0.00 | 0.00 | 72 | 1013.3 |
| 20260507085959 | 17 | 244 | 6.4 | 16.1 | 0.00 | 0.00 | 0.00 | 74 | 1013.2 |
| 20260507083958 | 17 | 240 | 6.4 | 17.7 | 0.00 | 0.00 | 0.00 | 77 | 1013.0 |
| 20260507083001 | 17 | 231 | 1.6 | 11.3 | 0.00 | 0.00 | 0.00 | 77 | 1012.9 |
| 20260507082000 | 17 | 228 | 1.6 | 4.8 | 0.00 | 0.00 | 0.00 | 74 | 1012.8 |
| 20260507081001 | 17 | 236 | 3.2 | 8.0 | 0.00 | 0.00 | 0.00 | 73 | 1012.6 |
| 20260507075958 | 17 | 190 | 1.6 | 14.5 | 0.00 | 0.00 | 0.00 | 71 | 1012.5 |
| 20260507074958 | 17 | 86 | 4.8 | 11.3 | 0.00 | 0.00 | 0.00 | 70 | 1012.5 |
| 20260507074007 | 17 | 80 | 9.7 | 14.5 | 0.00 | 0.00 | 0.00 | 70 | 1012.5 |
| 20260507072958 | 17 | 80 | 8.0 | 17.7 | 0.00 | 0.00 | 0.00 | 71 | 1012.5 |
| 20260507072001 | 17 | 63 | 12.9 | 19.3 | 0.00 | 0.00 | 0.00 | 72 | 1012.5 |
| 20260507070958 | 17 | 64 | 12.9 | 22.5 | 0.00 | 0.00 | 0.00 | 72 | 1012.5 |
| 20260507064958 | 16 | 76 | 11.3 | 19.3 | 0.00 | 0.20 | 0.00 | 73 | 1012.5 |
| 20260507063958 | 16 | 90 | 9.7 | 22.5 | 0.00 | 0.33 | 0.00 | 73 | 1012.6 |
| 20260507062958 | 16 | 84 | 6.4 | 9.7 | 0.00 | 0.38 | 0.00 | 73 | 1012.4 |
| 20260507061959 | 16 | 83 | 6.4 | 9.7 | 0.00 | 0.38 | 0.00 | 74 | 1012.4 |
| 20260507060958 | 16 | 73 | 0.0 | 8.0 | 0.00 | 0.38 | 0.00 | 77 | 1012.3 |
| 20260507055958 | 15 | 0 | 0.0 | 0.0 | 0.00 | 0.38 | 0.00 | 81 | 1012.1 |
| 20260507054958 | 15 | 0 | 0.0 | 0.0 | 0.00 | 0.38 | 0.00 | 83 | 1012.2 |
| 20260507053958 | 14 | 0 | 0.0 | 0.0 | 0.00 | 0.38 | 0.00 | 86 | 1012.3 |
| 20260507052958 | 13 | 0 | 0.0 | 0.0 | 0.00 | 0.38 | 0.00 | 87 | 1012.1 |
| 20260507051958 | 13 | 0 | 0.0 | 0.0 | 0.00 | 0.38 | 0.00 | 88 | 1012.2 |
| 20260507051001 | 13 | 0 | 0.0 | 0.0 | 0.00 | 0.38 | 0.00 | 88 | 1012.0 |
| 20260507045958 | 13 | 0 | 0.0 | 0.0 | 0.00 | 0.38 | 0.00 | 88 | 1011.7 |
| 20260507044958 | 13 | 0 | 0.0 | 0.0 | 0.00 | 0.38 | 0.00 | 87 | 1011.6 |
| 20260507042958 | 14 | 0 | 0.0 | 0.0 | 0.00 | 0.41 | 0.00 | 85 | 1011.6 |
| 20260507041958 | 14 | 0 | 0.0 | 0.0 | 0.00 | 0.41 | 0.00 | 84 | 1011.5 |
| 20260507041000 | 14 | 0 | 0.0 | 0.0 | 0.00 | 0.51 | 0.00 | 83 | 1011.4 |
| 20260507033958 | 15 | 229 | 0.0 | 4.8 | 0.00 | 0.58 | 0.00 | 80 | 1011.4 |
| 20260507032959 | 15 | 0 | 0.0 | 0.0 | 0.00 | 0.58 | 0.00 | 80 | 1011.3 |
| 20260507031959 | 15 | 0 | 0.0 | 0.0 | 0.00 | 0.58 | 0.00 | 81 | 1011.3 |
| 20260507030958 | 15 | 0 | 0.0 | 0.0 | 0.00 | 0.58 | 0.00 | 79 | 1011.3 |
| 20260507025958 | 15 | 0 | 0.0 | 0.0 | 0.00 | 0.58 | 0.00 | 79 | 1011.3 |
| 20260507024958 | 15 | 87 | 1.6 | 6.4 | 0.00 | 0.58 | 0.00 | 79 | 1011.2 |
| 20260507023959 | 15 | 125 | 3.2 | 6.4 | 0.00 | 0.61 | 0.00 | 78 | 1011.3 |
| 20260507022958 | 15 | 128 | 1.6 | 6.4 | 0.00 | 0.61 | 0.00 | 78 | 1011.3 |
| 20260507020958 | 15 | 135 | 0.0 | 6.4 | 0.00 | 0.66 | 0.00 | 78 | 1011.2 |
| 20260507015958 | 15 | 113 | 0.0 | 1.6 | 0.00 | 0.74 | 0.00 | 78 | 1011.2 |
| 20260507014958 | 16 | 126 | 0.0 | 4.8 | 0.00 | 0.84 | 0.00 | 78 | 1011.2 |
| 20260507013958 | 16 | 0 | 0.0 | 0.0 | 0.00 | 0.99 | 0.00 | 78 | 1011.0 |
| 20260507012958 | 16 | 215 | 0.0 | 6.4 | 0.00 | 1.37 | 0.00 | 78 | 1011.1 |
| 20260507011959 | 16 | 0 | 0.0 | 0.0 | 0.00 | 1.83 | 0.00 | 78 | 1011.2 |
| 20260507010959 | 16 | 140 | 1.6 | 1.6 | 0.00 | 1.96 | 0.00 | 78 | 1011.3 |
| 20260507005958 | 16 | 221 | 1.6 | 1.6 | 0.00 | 2.01 | 0.00 | 79 | 1011.3 |
| 20260507004958 | 16 | 238 | 1.6 | 9.7 | 0.00 | 2.03 | 0.00 | 78 | 1011.3 |
| 20260507002959 | 16 | 0 | 0.0 | 0.0 | 0.00 | 2.11 | 0.00 | 78 | 1011.3 |
| 20260507001959 | 16 | 167 | 1.6 | 4.8 | 0.00 | 2.13 | 0.00 | 78 | 1011.2 |
| 20260507000958 | 16 | 194 | 3.2 | 8.0 | 0.00 | 2.21 | 0.00 | 78 | 1011.2 |
| 20260506234958 | 16 | 0 | 1.6 | 0.0 | 0.00 | 2.21 | 0.00 | 77 | 1011.3 |
| 20260506233959 | 16 | 122 | 1.6 | 6.4 | 0.00 | 2.21 | 0.00 | 77 | 1011.3 |
| 20260506233002 | 16 | 0 | 1.6 | 0.0 | 0.00 | 2.21 | 0.00 | 76 | 1011.3 |
| 20260506225008 | 16 | 208 | 3.2 | 11.3 | 0.00 | 2.21 | 0.00 | 77 | 1011.3 |